Terminal Aerodrome Forecast
Issued by NWS Billings, MT

Home | Current Version | Previous Version | Text Only | Print | Product List | Glossary On
Versions: 1 2 3 4 5 6 7 8 9 10 11 12 13 14 15 16 17 18 19 20 21 22 23 24 25 26 27 28 29 30 31 32 33
000
FTUS45 KBYZ 041728
TAFSHR
TAF
KSHR 041728Z 0418/0518 VRB15G25KT P6SM VCTS SCT060CB BKN100
     FM042300 32006KT P6SM -SHRA SCT060 BKN100
     FM050200 VRB06KT P6SM FEW070=

USA.gov is the U.S. government's official web portal to all federal, state and local government web resources and services.